Regional Weather Roundup
Issued by NWS

Home | Current Version | Previous Version | Graphics & Text | Print | Product List | Glossary On
Versions: 1 2 3 4 5 6 7 8 9 10 11 12 13 14 15 16 17 18 19 20 21 22 23 24 25 26 27 28 29 30 31 32 33 34 35 36 37 38 39 40 41 42 43 44 45 46 47 48 49 50
000
ASUS44 KMEG 061110
RWRTN
TENNESSEE HOURLY STATE WEATHER ROUNDUP
NATIONAL WEATHER SERVICE MEMPHIS TN
600 AM CDT WED MAY 06 2015

TNZ002-004-019-021-049-052-054-088>092-061200-
WEST TENNESSEE

CITY           SKY/WX    TMP DP  RH WIND       PRES   REMARKS
MEMPHIS INTL   FAIR      66  55  67 SE5       30.13R
NWS MEMPHIS      N/A     60 N/A N/A MISG        N/A
JACKSON        CLEAR     54  52  93 CALM      30.15S
DYERSBURG      CLEAR     57  43  58 CALM      30.15S
PARIS          CLEAR     55  54  94 CALM      30.16S
LEXINGTON      MOCLDY    54  52  94 CALM      30.16S
$$

TNZ008-025-027-028-033-062-065-066-061200-
NORTH MIDDLE TENNESSEE

CITY           SKY/WX    TMP DP  RH WIND       PRES   REMARKS
NASHVILLE      MOCLDY    60  57  89 S5        30.19R
CLARKSVILLE    CLEAR     56  54  93 CALM      30.18R
SMYRNA         PTCLDY    58  58 100 CALM      30.20S
COOKEVILLE     MOCLDY    63  59  88 CALM      30.21R
CROSSVILLE     PTCLDY    60  52  74 CALM      30.25S
$$

TNZ061-075-076-078-094-096-097-061200-
SOUTH MIDDLE TENNESSEE

CITY           SKY/WX    TMP DP  RH WIND       PRES   REMARKS
FAYETTEVILLE   CLEAR     57  52  82 CALM      30.20R
TULLAHOMA      CLEAR     54  54 100 CALM      30.22R
WINCHESTER     CLEAR     55  54  94 CALM      30.22R
MCMINNVILLE    PTCLDY    61  61 100 CALM      30.22R
COLUMBIA       PTCLDY    54  54 100 CALM      30.18R
SHELBYVILLE    CLEAR     59  57  94 CALM      30.21R
$$

TNZ017-018-042-046-047-061200-
NORTHEAST TENNESSEE

CITY           SKY/WX    TMP DP  RH WIND       PRES   REMARKS
TRI CITIES     PTCLDY    55  53  93 CALM      30.26S
ELIZABETHTON   SUNNY     54  52  94 NE3       30.27S
$$

TNZ012-013-036-069-073-074-061200-
CENTRAL EAST TENNESSEE

CITY           SKY/WX    TMP DP  RH WIND       PRES   REMARKS
KNOXVILLE      PTCLDY    59  56  89 E3        30.23R
OAK RIDGE      CLEAR     59  57  93 CALM      30.24R
GATLINBURG     SUNNY     55  54  94 CALM      30.24R
MORRISTOWN     SUNNY     57  55  94 CALM      30.25R
$$

TNZ083-085-099-061200-
SOUTHEAST TENNESSEE

CITY           SKY/WX    TMP DP  RH WIND       PRES   REMARKS
CHATTANOOGA    PTCLDY    57  55  93 CALM      30.22R
$$

SKY/WX REPORTED AS FAIR MEANS FEW OR NO CLOUDS BELOW
12 THOUSAND FEET.



USA.gov is the U.S. government's official web portal to all federal, state and local government web resources and services.